Satellite: NOAA-17
Catalog number: 27453
Epoch time:      12207.72625895
Element set:    0781
Inclination:      098.3344 deg
RA of node:       232.8136 deg
Eccentricity:    0.0012419
Arg of perigee:   047.6756 deg
Mean anomaly:     312.5453 deg
Mean motion:   14.24461777 rev/day
Decay rate:        4.9e-07 rev/day^2
Epoch rev:           52424
Checksum:              316

Satellite: NOAA-18
Catalog number: 28654
Epoch time:      12207.76472236
Element set:    0263
Inclination:      099.0486 deg
RA of node:       166.1796 deg
Eccentricity:    0.0015248
Arg of perigee:   048.0189 deg
Mean anomaly:     312.2271 deg
Mean motion:   14.11676371 rev/day
Decay rate:       -4.1e-07 rev/day^2
Epoch rev:           37000
Checksum:              298

Satellite: NOAA-19
Catalog number: 33591
Epoch time:      12207.78120721
Element set:    0452
Inclination:      098.8650 deg
RA of node:       147.0945 deg
Eccentricity:    0.0013136
Arg of perigee:   273.7325 deg
Mean anomaly:     086.2339 deg
Mean motion:   14.11363021 rev/day
Decay rate:       -9.6e-07 rev/day^2
Epoch rev:           17845
Checksum:              296

/EX
SB KEPS @ AMSAT  $ORB12208.M
Orbital Elements  12208.MISC

HR AMSAT ORBITAL ELEMENTS FOR MANNED AND MISCELLANEOUS SATELLITES
FROM WA5QGD FORT WORTH,TX July 26, 2012
Send SUBSCRIBE KEPS/UNSUBSCRIBE KEPS to majordomo@amsat.org only
BID: ORB12208.M
TO ALL RADIO AMATEURS BT

Satellite: HUBBLE
Catalog number: 20580
Epoch time:      12207.24947860
Element set:      41
Inclination:      028.4705 deg
RA of node:       254.4395 deg
Eccentricity:    0.0003502
Arg of perigee:   108.6935 deg
Mean anomaly:     251.4009 deg
Mean motion:   15.02639521 rev/day
Decay rate:       6.60e-06 rev/day^2
Epoch rev:            2046
Checksum:              260

Satellite: ISS
Catalog number: 25544
Epoch time:      12208.95090278
Element set:       3
Inclination:      051.6430 deg
RA of node:       283.6980 deg
Eccentricity:    0.0000704
Arg of perigee:   335.9577 deg
Mean anomaly:     013.1873 deg
Mean motion:   15.54728434 rev/day
Decay rate:      5.298e-05 rev/day^2
Epoch rev:           78419
Checksum:              308

Satellite: CO-58
Catalog number: 28895
Epoch time:      12207.58168892
Element set:    0236
Inclination:      097.9071 deg
RA of node:       072.1572 deg
Eccentricity:    0.0018391
Arg of perigee:   034.5341 deg
Mean anomaly:     325.7076 deg
Mean motion:   14.60684301 rev/day
Decay rate:       3.36e-06 rev/day^2
Epoch rev:           35926
Checksum:              324

Satellite: FALCON
Catalog number: 30776
Epoch time:      12207.92849038
Element set:    0409
Inclination:      035.4326 deg
RA of node:       040.1610 deg
Eccentricity:    0.0003962
Arg of perigee:   350.3235 deg
Mean anomaly:     009.7405 deg
Mean motion:   15.07798400 rev/day
Decay rate:      1.779e-05 rev/day^2
Epoch rev:           29610
Checksum:              283

Satellite: MAST
Catalog number: 31126
Epoch time:      12207.96152627
Element set:    0528
Inclination:      097.8747 deg
RA of node:       216.7945 deg
Eccentricity:    0.0093775
Arg of perigee:   350.5734 deg
Mean anomaly:     009.3700 deg
Mean motion:   14.54205958 rev/day
Decay rate:       2.78e-06 rev/day^2
Epoch rev:           27990
Checksum:              327

Satellite: CAPE1
Catalog number: 31130
Epoch time:      12207.54782176
Element set:    0527
Inclination:      097.8823 deg
RA of node:       212.7643 deg
Eccentricity:    0.0101767
Arg of perigee:   005.3025 deg
Mean anomaly:     354.9225 deg
Mean motion:   14.52998650 rev/day
Decay rate:       2.46e-06 rev/day^2
Epoch rev:           27934
Checksum:              299

Satellite: COMPASS
Catalog number: 32787
Epoch time:      12207.90481480
Element set:     364
Inclination:      097.7968 deg
RA of node:       268.3816 deg
Eccentricity:    0.0014053
Arg of perigee:   296.5137 deg
Mean anomaly:     063.4632 deg
Mean motion:   14.84137172 rev/day
Decay rate:       6.12e-06 rev/day^2
Epoch rev:           22955
Checksum:              315

Satellite: AAUSAT2
Catalog number: 32788
Epoch time:      12207.73108799
Element set:    0357
Inclination:      097.7980 deg
RA of node:       268.6140 deg
Eccentricity:    0.0013604
Arg of perigee:   297.4914 deg
Mean anomaly:     062.4917 deg
Mean motion:   14.84469884 rev/day
Decay rate:       9.22e-06 rev/day^2
Epoch rev:           22955
Checksum:              348

Satellite: DO-64
Catalog number: 32789
Epoch time:      12207.94065942
Element set:    0375
Inclination:      097.8087 deg
RA of node:       270.9909 deg
Eccentricity:    0.0013326
Arg of perigee:   292.1145 deg
Mean anomaly:     067.8720 deg
Mean motion:   14.86052496 rev/day
Decay rate:      1.668e-05 rev/day^2
Epoch rev:           22963
Checksum:              346

Satellite: CO-66
Catalog number: 32791
Epoch time:      12207.77508642
Element set:    0357
Inclination:      097.7960 deg
RA of node:       267.9654 deg
Eccentricity:    0.0013879
Arg of perigee:   296.9791 deg
Mean anomaly:     062.9986 deg
Mean motion:   14.83528522 rev/day
Decay rate:       2.99e-06 rev/day^2
Epoch rev:           22946
Checksum:              381

